MST,Max TemperatureF,Mean TemperatureF,Min TemperatureF,Max Dew PointF,MeanDew PointF,Min DewpointF,Max Humidity, Mean Humidity, Min Humidity, Max Sea Level PressureIn, Mean Sea Level PressureIn, Min Sea Level PressureIn, Max VisibilityMiles, Mean VisibilityMiles, Min VisibilityMiles, Max Wind SpeedMPH, Mean Wind SpeedMPH, Max Gust SpeedMPH,PrecipitationIn, CloudCover, Events, WindDirDegrees
2012-11-1,65,39,12,14,10,5,67,40,12,30.33,30.17,30.02,10,10,10,21,3,,0.00,0,,214
2012-11-2,58,41,23,13,10,6,50,32,13,30.21,30.16,30.12,10,10,10,24,7,,0.00,0,,164
2012-11-3,59,36,13,13,8,4,67,40,13,30.33,30.23,30.14,10,10,10,10,4,13,0.00,0,,34
2012-11-4,58,34,10,14,9,2,66,41,16,30.42,30.32,30.25,10,10,10,10,3,15,0.00,0,,311
2012-11-5,60,38,15,23,15,5,67,45,23,30.45,30.33,30.23,10,10,10,10,3,20,0.00,0,,245
2012-11-6,62,39,15,21,14,9,74,45,16,30.48,30.32,30.22,10,10,10,9,3,12,0.00,0,,217
2012-11-7,64,39,13,17,13,7,73,45,16,30.40,30.20,30.06,10,10,10,10,3,10,0.00,0,,115
2012-11-8,64,38,11,21,13,4,73,45,16,30.27,30.04,29.86,10,10,10,20,6,25,0.00,0,,208
2012-11-9,57,43,28,37,29,15,100,64,27,29.95,29.79,29.66,10,10,10,35,15,45,0.03,3,Rain,195
2012-11-10,43,27,11,36,22,4,92,59,26,29.87,29.65,29.47,10,9,0,35,17,53,0.05,4,Fog-Snow-Thunderstorm,230
2012-11-11,31,15,-1,9,-2,-15,87,51,14,30.50,30.16,29.90,10,10,10,26,9,32,0.00,2,,356
2012-11-12,37,16,-5,3,-3,-9,79,49,18,30.71,30.58,30.39,10,10,10,9,4,15,0.00,0,,273
2012-11-13,47,26,5,11,6,2,80,50,20,30.52,30.43,30.31,10,10,10,8,2,10,0.00,0,,294
2012-11-14,50,27,4,14,7,0,91,56,20,30.54,30.40,30.25,10,10,10,9,2,9,0.00,0,,248
2012-11-15,52,27,1,14,4,-4,83,47,11,30.57,30.40,30.29,10,10,9,10,2,13,0.00,0,,33
2012-11-16,52,31,9,17,11,4,84,54,24,30.51,30.35,30.25,10,10,10,10,3,10,0.00,2,,227
2012-11-17,58,34,9,20,14,3,76,49,21,30.41,30.24,30.12,10,10,10,16,4,21,0.00,0,,201
2012-11-18,55,34,13,25,17,12,84,54,24,30.28,30.18,30.07,10,10,10,13,5,16,0.00,0,,200
2012-11-19,52,30,7,20,12,5,92,57,22,30.49,30.39,30.27,10,10,10,9,2,13,0.00,0,,206
2012-11-20,54,31,8,19,11,3,91,57,22,30.55,30.41,30.30,10,10,9,10,2,12,0.00,0,,234
2012-11-21,56,30,4,16,8,-1,80,49,18,30.43,30.27,30.14,10,10,9,14,2,15,0.00,0,,253
2012-11-22,54,29,4,14,8,0,83,50,16,30.49,30.32,30.14,10,10,10,10,3,12,0.00,0,,247
2012-11-23,51,29,7,14,9,-2,73,47,21,30.64,30.52,30.43,10,10,9,9,2,10,0.00,0,,217
2012-11-24,53,28,2,14,6,-3,79,47,14,30.59,30.36,30.22,10,10,8,7,1,8,0.00,0,,285
2012-11-25,55,30,4,12,6,-3,80,48,16,30.26,30.12,29.96,10,10,10,13,3,13,0.00,0,,234
2012-11-26,51,27,2,11,3,-4,76,46,15,30.43,30.27,30.05,10,10,10,12,3,13,0.00,0,,193
2012-11-27,49,24,-1,14,3,-6,75,45,14,30.60,30.46,30.35,10,10,9,9,2,10,0.00,0,,281
2012-11-28,45,21,-3,7,0,-12,75,47,18,30.66,30.47,30.32,10,10,9,8,3,9,0.00,0,,264
2012-11-29,53,28,3,14,5,-5,71,59,37,30.45,30.32,30.16,10,10,9,52,3,,0.00,0,,230
2012-11-30,50,28,5,21,14,0,80,57,34,30.43,30.21,30.04,10,10,10,18,4,23,0.00,0,,265